CAPE
0 0 0 0 0 0 0 0 0 0 0 0 0 0 0 0 0 0 0 0 0 0 0 0 0 0 0 0 1 4 5 26 189 243 186 80 276 401 337 253 232 326 182 161 244 167 156 119 24
0 0 0 0 0 0 0 0 0 0 0 0 0 0 0 0 0 0 0 0 0 0 0 0 0 0 0 0 0 0 3 5 91 188 213 246 230 458 462 359 301 201 116 138 282 226 144 71 20
0 0 0 0 0 0 0 0 0 0 0 0 0 0 0 0 0 0 0 0 0 0 0 0 0 0 0 0 0 0 1 3 18 83 156 158 271 293 525 263 266 223 158 226 302 223 122 45 12
0 0 0 0 0 0 0 0 0 0 0 0 0 0 0 0 0 0 0 0 0 0 0 0 0 0 0 0 0 0 0 2 6 32 89 138 78 117 262 433 171 117 247 242 262 177 119 54 39
0 0 0 0 0 0 0 0 0 0 0 0 0 0 0 0 0 0 0 0 0 0 0 0 0 0 0 0 0 0 0 0 2 2 44 100 127 182 96 251 284 148 93 288 226 137 100 91 63
0 0 0 0 0 0 0 0 0 0 0 0 0 0 0 0 0 0 0 0 0 0 0 0 0 0 0 0 0 0 0 0 0 2 3 88 82 120 165 176 238 142 101 141 89 96 86 89 47
0 0 0 0 0 0 0 0 0 0 0 0 0 0 0 0 0 0 0 0 0 0 0 0 0 0 0 0 0 0 0 0 0 0 0 14 56 99 108 50 15 131 74 154 88 62 63 83 80
0 0 0 0 0 0 0 0 0 0 0 0 0 0 0 0 0 0 0 0 0 0 0 0 0 0 0 0 0 0 0 0 0 0 0 0 60 98 90 37 0 0 103 154 51 29 24 67 60
0 0 0 0 0 0 0 0 0 0 0 0 0 0 0 0 0 0 0 0 0 0 0 0 0 0 0 0 0 0 0 0 0 0 0 7 146 274 201 50 6 2 0 80 74 26 1 31 12
0 0 0 0 0 0 0 0 0 0 0 0 0 0 0 0 0 0 0 0 0 0 0 0 0 0 0 0 0 0 0 0 0 0 0 3 95 77 192 75 14 24 2 84 109 95 18 5 11
0 0 0 0 0 0 0 0 0 0 0 0 0 0 0 0 0 0 0 0 0 0 0 0 0 0 0 0 0 0 0 0 0 0 0 1 6 23 171 128 71 84 80 118 105 2 2 0 0
0 0 0 0 0 0 0 0 0 0 0 0 0 0 0 0 0 0 0 0 0 0 0 0 0 0 0 0 0 0 0 0 0 0 0 6 3 3 24 99 151 244 223 175 68 9 1 0 0
0 0 0 0 0 0 0 0 0 0 0 0 0 0 0 0 0 0 0 0 0 0 0 0 0 0 0 0 0 0 0 0 0 0 0 6 2 2 6 36 173 186 218 93 16 2 2 0 0
0 0 0 0 0 0 0 0 0 0 0 0 0 0 0 0 0 0 0 0 0 0 0 0 0 0 0 0 0 0 0 0 0 0 0 5 3 5 3 25 110 111 125 35 9 2 0 1 0
0 0 0 0 0 0 0 0 0 0 0 0 0 0 0 0 0 0 0 0 0 0 0 0 0 0 0 0 0 0 0 0 0 0 0 2 10 7 2 2 23 21 83 55 11 0 2 2 0
0 0 0 0 0 0 0 0 0 0 0 0 0 0 0 0 0 0 0 0 0 0 0 0 0 0 0 0 0 0 0 0 0 0 1 2 9 2 4 2 5 61 72 30 0 1 3 8 0
0 0 0 0 0 0 0 0 0 0 0 0 0 0 0 0 0 0 0 0 0 0 0 0 0 0 0 0 0 0 0 0 0 0 3 1 1 0 2 2 2 12 38 7 2 2 2 3 7
0 0 0 0 0 0 0 0 0 0 0 0 0 0 0 0 0 0 0 0 0 0 0 0 0 0 0 0 0 0 0 0 0 2 0 2 0 0 0 1 1 2 35 2 2 1 2 3 3
0 0 0 0 0 0 0 0 0 0 0 0 0 0 0 0 0 0 0 0 0 0 0 0 0 0 0 0 0 0 0 0 5 6 2 2 1 0 1 2 2 3 4 7 3 2 1 2 8
0 0 0 0 0 0 0 0 0 0 0 0 0 0 0 0 0 0 0 0 0 0 0 0 0 0 0 0 0 0 1 0 3 1 0 2 0 0 1 2 3 1 4 28 3 2 4 12 7
0 0 0 0 0 0 0 0 0 0 0 0 0 0 0 0 0 0 0 0 0 0 0 0 0 0 0 0 0 0 1 1 2 0 1 0 2 1 2 1 2 2 3 32 18 12 0 11 9
0 0 0 0 0 0 0 0 0 0 0 0 0 0 0 0 0 0 0 0 0 0 0 0 0 0 0 0 0 0 1 1 0 0 0 0 1 2 2 2 2 2 3 45 32 47 38 2 6
0 0 0 0 0 0 0 0 0 0 0 0 0 0 0 0 0 0 0 0 0 0 0 0 0 0 0 0 0 0 1 0 0 0 1 3 2 3 2 2 2 3 2 6 22 65 58 33 3
0 0 0 0 0 0 0 0 0 0 0 0 0 0 0 0 0 0 0 0 0 0 0 0 0 0 0 0 0 0 0 0 0 0 1 2 2 2 2 2 3 4 4 2 31 49 55 5 11
0 0 0 0 0 0 0 0 0 0 0 0 0 0 0 0 0 0 0 0 0 0 0 0 0 0 0 0 0 0 0 0 0 0 0 2 3 1 1 3 1 2 3 1 28 58 48 26 0
0 0 0 0 0 0 0 0 0 0 0 0 0 0 0 0 0 0 0 0 0 0 0 0 0 0 0 0 0 0 0 0 0 0 0 0 1 1 1 1 2 2 3 3 80 79 41 24 6
0 0 0 0 0 0 0 0 0 0 0 0 0 0 0 0 0 0 0 0 0 0 0 0 0 0 0 0 0 0 0 0 0 0 0 0 0 0 1 1 1 0 4 29 14 43 25 28 12
0 0 0 0 0 0 0 0 0 0 0 0 0 0 0 0 0 0 0 0 0 0 0 0 0 0 0 0 0 0 1 1 1 0 0 0 0 2 1 0 1 0 30 15 33 15 4 14 1
0 0 0 0 0 0 0 0 0 0 0 0 0 0 0 0 0 0 0 0 0 0 0 0 0 0 0 0 0 1 1 1 0 0 0 0 0 1 0 1 0 1 27 14 10 0 1 0 0
0 0 0 0 0 0 0 0 0 0 0 0 0 0 0 0 0 0 0 0 0 0 0 0 0 0 0 0 1 1 0 0 1 0 0 0 1 1 2 1 0 0 2 0 1 0 0 0 0
CIN
0 0 0 0 0 0 0 0 0 0 0 0 0 0 0 0 0 0 0 0 0 0 0 0 0 0 0 0 0 0 0 -34 -23 -17 -9 -45 -4 0 -1 -2 -12 0 0 0 0 0 -2 -1 -10
0 0 0 0 0 0 0 0 0 0 0 0 0 0 0 0 0 0 0 0 0 0 0 0 0 0 0 0 0 0 0 -16 -78 -32 -24 -15 -9 -1 0 0 0 -4 -8 0 0 0 0 -5 -8
0 0 0 0 0 0 0 0 0 0 0 0 0 0 0 0 0 0 0 0 0 0 0 0 0 0 0 0 0 0 0 0 -39 -64 -33 -33 -9 -4 0 -3 -4 -2 -5 0 0 0 0 -7 -2
0 0 0 0 0 0 0 0 0 0 0 0 0 0 0 0 0 0 0 0 0 0 0 0 0 0 0 0 0 0 0 0 0 -17 -53 -44 -76 -64 -5 0 -8 -19 -2 -2 0 0 0 -5 -11
0 0 0 0 0 0 0 0 0 0 0 0 0 0 0 0 0 0 0 0 0 0 0 0 0 0 0 0 0 0 0 0 0 0 -36 -83 -61 -58 -75 -8 -8 -7 -17 -2 0 0 -2 0 -5
0 0 0 0 0 0 0 0 0 0 0 0 0 0 0 0 0 0 0 0 0 0 0 0 0 0 0 0 0 0 0 0 0 0 0 -32 -24 -2 -33 -19 -4 -17 -18 -4 -2 -1 -2 -6 -5
0 0 0 0 0 0 0 0 0 0 0 0 0 0 0 0 0 0 0 0 0 0 0 0 0 0 0 0 0 0 0 0 0 0 0 -161 -64 -30 -16 -58 -63 -18 -14 -5 -3 -1 -2 -3 -3
0 0 0 0 0 0 0 0 0 0 0 0 0 0 0 0 0 0 0 0 0 0 0 0 0 0 0 0 0 0 0 0 0 0 0 0 -102 -29 -54 -74 -2 -1 -21 0 -18 -17 -3 -2 -5
0 0 0 0 0 0 0 0 0 0 0 0 0 0 0 0 0 0 0 0 0 0 0 0 0 0 0 0 0 0 0 0 0 0 0 -36 -49 -5 -8 -60 -31 -64 -2 -5 -2 0 -10 -1 -14
0 0 0 0 0 0 0 0 0 0 0 0 0 0 0 0 0 0 0 0 0 0 0 0 0 0 0 0 0 0 0 0 0 0 0 0 -82 -82 -8 -27 -45 -77 -44 -3 -7 -2 -5 -5 -21
0 0 0 0 0 0 0 0 0 0 0 0 0 0 0 0 0 0 0 0 0 0 0 0 0 0 0 0 0 0 0 0 0 0 0 0 0 -172 -2 -1 -26 -37 -46 0 -9 0 0 0 0
0 0 0 0 0 0 0 0 0 0 0 0 0 0 0 0 0 0 0 0 0 0 0 0 0 0 0 0 0 0 0 0 0 0 0 0 0 -157 -94 -3 -4 -1 0 -1 -29 -51 -10 0 0
0 0 0 0 0 0 0 0 0 0 0 0 0 0 0 0 0 0 0 0 0 0 0 0 0 0 0 0 0 0 0 0 0 0 0 0 0 0 -76 -46 0 -3 0 -5 -65 0 0 0 0
0 0 0 0 0 0 0 0 0 0 0 0 0 0 0 0 0 0 0 0 0 0 0 0 0 0 0 0 0 0 0 0 0 0 0 0 0 -1 -3 -96 -2 -6 0 -20 -33 -74 0 0 -14
0 0 0 0 0 0 0 0 0 0 0 0 0 0 0 0 0 0 0 0 0 0 0 0 0 0 0 0 0 0 0 0 0 0 0 0 0 0 0 -1 -40 -30 -20 -10 -9 -68 0 0 0
0 0 0 0 0 0 0 0 0 0 0 0 0 0 0 0 0 0 0 0 0 0 0 0 0 0 0 0 0 0 0 0 0 0 0 0 0 -1 0 0 -89 -3 -5 -1 -2 0 -39 -31 0
0 0 0 0 0 0 0 0 0 0 0 0 0 0 0 0 0 0 0 0 0 0 0 0 0 0 0 0 0 0 0 0 0 0 0 0 0 0 0 -1 -30 -13 -3 -14 0 0 0 -26 0
0 0 0 0 0 0 0 0 0 0 0 0 0 0 0 0 0 0 0 0 0 0 0 0 0 0 0 0 0 0 0 0 0 0 0 0 0 0 0 0 0 0 -1 0 0 0 0 -40 -6
0 0 0 0 0 0 0 0 0 0 0 0 0 0 0 0 0 0 0 0 0 0 0 0 0 0 0 0 0 0 0 0 0 0 0 0 0 0 0 0 0 0 0 -8 0 0 0 0 0
0 0 0 0 0 0 0 0 0 0 0 0 0 0 0 0 0 0 0 0 0 0 0 0 0 0 0 0 0 0 0 0 0 0 0 0 0 0 0 0 0 0 -7 -2 -4 -2 0 0 0
0 0 0 0 0 0 0 0 0 0 0 0 0 0 0 0 0 0 0 0 0 0 0 0 0 0 0 0 0 0 0 0 0 0 0 0 0 0 0 0 0 0 -1 -3 -4 -22 0 0 0
0 0 0 0 0 0 0 0 0 0 0 0 0 0 0 0 0 0 0 0 0 0 0 0 0 0 0 0 0 0 0 0 0 0 0 0 0 0 0 0 0 0 0 -17 0 0 -2 -5 -4
0 0 0 0 0 0 0 0 0 0 0 0 0 0 0 0 0 0 0 0 0 0 0 0 0 0 0 0 0 0 0 0 0 0 0 0 0 0 0 0 0 0 0 -61 -3 0 0 -1 -10
0 0 0 0 0 0 0 0 0 0 0 0 0 0 0 0 0 0 0 0 0 0 0 0 0 0 0 0 0 0 0 0 0 0 0 0 0 0 0 0 0 0 0 0 0 0 0 0 -16
0 0 0 0 0 0 0 0 0 0 0 0 0 0 0 0 0 0 0 0 0 0 0 0 0 0 0 0 0 0 0 0 0 0 0 0 0 0 0 0 0 0 0 0 -5 -1 -2 -7 0
0 0 0 0 0 0 0 0 0 0 0 0 0 0 0 0 0 0 0 0 0 0 0 0 0 0 0 0 0 0 0 0 0 0 0 0 0 0 0 0 0 0 0 0 0 0 -5 -10 -20
0 0 0 0 0 0 0 0 0 0 0 0 0 0 0 0 0 0 0 0 0 0 0 0 0 0 0 0 0 0 0 0 0 0 0 0 0 0 0 0 0 0 0 -37 -29 0 -10 -34 -22
0 0 0 0 0 0 0 0 0 0 0 0 0 0 0 0 0 0 0 0 0 0 0 0 0 0 0 0 0 0 0 0 0 0 0 0 0 0 0 0 0 0 -54 -4 0 -8 -13 -42 0
0 0 0 0 0 0 0 0 0 0 0 0 0 0 0 0 0 0 0 0 0 0 0 0 0 0 0 0 0 0 0 0 0 0 0 0 0 0 0 0 0 -1 0 0 -15 0 -5 0 0
0 0 0 0 0 0 0 0 0 0 0 0 0 0 0 0 0 0 0 0 0 0 0 0 0 0 0 0 0 0 0 0 0 0 0 0 0 0 0 0 0 0 0 0 0 -6 0 0 0
Wind_Speed
20 17 14 13 13 14 12 13 12 12 12 12 13 12 16 17 18 19 15 16 17 19 21 24 27 28 28 28 27 27 28 29 22 17 12 12 14 15 14 12 12 9 7 5 5 6 4 1 3
17 15 13 12 15 13 14 13 11 10 12 13 13 13 14 17 16 15 14 15 16 18 20 22 25 26 27 27 27 26 26 27 29 22 18 14 15 16 17 16 13 10 8 6 7 4 4 2 4
15 15 13 13 15 14 16 13 11 12 11 12 13 16 16 16 14 15 14 14 15 19 21 24 26 26 26 26 26 25 26 26 28 27 25 22 17 17 19 20 18 14 9 8 6 5 4 4 4
14 14 15 14 16 17 16 14 12 11 13 13 15 16 16 14 15 14 13 13 16 18 21 22 24 25 26 27 26 26 26 26 26 27 26 27 26 21 20 23 23 19 14 12 8 6 5 5 4
14 14 15 17 18 16 13 14 12 12 14 14 15 17 17 14 12 12 12 13 16 19 19 20 22 24 25 25 25 26 26 26 27 27 28 28 28 27 23 24 26 22 22 10 10 7 6 5 5
14 15 16 15 17 17 14 12 12 13 14 15 17 17 17 13 12 11 11 13 16 18 18 19 20 23 24 25 26 26 27 28 28 28 29 29 29 30 28 26 29 28 24 18 10 7 5 6 5
14 15 17 18 19 18 15 12 12 14 14 14 16 18 17 12 11 11 11 13 15 16 17 18 19 22 23 24 25 27 28 29 28 27 27 29 31 32 33 31 29 28 26 22 9 8 6 7 6
15 15 17 16 17 18 15 12 15 12 14 15 14 15 18 13 11 11 12 13 14 15 16 18 19 21 22 24 25 27 28 28 27 26 26 29 31 31 33 34 29 28 29 24 20 11 6 7 7
14 14 14 16 15 16 14 13 13 14 13 13 11 14 17 15 12 14 14 15 16 15 15 16 18 20 22 24 26 27 28 27 26 25 23 27 27 30 31 33 35 31 29 25 19 6 9 7 8
13 15 15 14 14 14 13 12 15 14 12 11 10 9 13 12 12 13 13 17 17 18 16 15 16 19 23 25 27 28 27 27 26 26 24 23 27 27 27 28 33 33 33 29 21 15 7 12 9
16 15 15 14 13 13 14 14 12 13 13 10 14 15 10 11 11 12 13 15 16 17 16 14 16 19 24 25 26 26 28 28 27 26 26 21 26 25 25 24 27 32 31 23 20 9 10 11 9
15 15 15 17 14 13 13 16 14 7 11 15 13 15 14 13 12 12 13 15 15 15 14 13 15 19 23 24 26 26 27 27 28 25 25 24 22 25 26 25 23 24 26 22 17 12 12 11 7
16 16 15 15 14 12 14 12 13 7 6 7 11 13 15 14 13 12 12 14 16 14 14 13 14 18 23 27 27 26 27 27 29 26 24 23 23 24 24 24 23 21 20 18 20 13 11 10 10
17 17 18 15 14 13 13 15 17 16 13 12 4 7 13 12 11 12 13 15 15 13 13 13 15 17 22 26 27 27 27 28 28 24 21 23 25 24 23 22 23 21 17 13 10 8 9 11 11
16 19 18 16 16 15 18 10 6 10 10 12 10 10 13 12 11 10 12 16 17 15 14 14 15 19 23 25 26 25 26 26 25 21 21 23 23 24 24 22 23 24 24 15 14 5 6 9 12
19 19 21 17 17 15 16 9 13 14 10 10 11 12 13 13 12 13 13 16 16 16 15 15 17 19 23 22 23 24 24 24 21 20 20 22 22 22 23 23 22 25 20 18 18 13 16 12 11
19 18 16 16 17 16 11 7 17 14 13 12 12 14 13 11 13 13 16 18 17 17 16 17 18 20 21 22 23 22 21 19 20 21 20 20 21 21 21 22 23 25 21 18 16 15 12 8 9
18 17 15 9 16 13 4 12 7 9 9 8 7 10 10 11 14 16 17 18 18 18 17 18 19 21 21 22 20 19 18 16 19 16 15 18 19 20 21 24 24 28 24 21 16 18 13 11 12
19 16 15 12 16 15 4 8 8 17 17 14 11 8 8 10 14 16 17 17 18 17 17 18 20 22 22 21 19 17 15 16 13 13 16 18 18 18 20 24 24 26 25 18 18 13 13 16 14
18 18 17 14 16 18 8 15 15 16 16 16 15 12 12 12 14 16 15 16 18 17 17 18 20 22 20 18 16 15 11 12 11 13 17 17 18 19 21 22 24 26 26 24 17 12 13 10 13
16 16 18 17 10 14 11 14 15 15 15 15 15 14 14 14 15 16 16 16 18 17 16 17 19 20 19 18 14 14 13 13 14 16 17 18 19 20 21 22 25 26 27 27 23 12 12 14 16
18 16 16 19 22 19 22 17 15 15 14 14 15 14 13 13 15 15 15 16 18 18 17 17 19 19 18 19 16 15 14 15 14 16 18 19 18 20 21 21 23 27 27 26 25 23 18 13 19
17 18 18 17 17 18 15 15 14 15 13 12 15 16 16 15 15 15 15 16 19 18 19 18 18 18 18 18 18 15 14 14 14 14 18 17 18 19 20 20 22 27 28 27 30 30 24 18 29
14 18 18 17 17 16 14 17 14 14 13 13 13 15 14 15 16 17 17 17 18 18 19 18 18 18 19 17 17 16 14 13 13 14 14 18 18 18 20 20 21 31 33 33 33 33 29 23 24
16 18 21 20 18 17 14 16 10 13 12 13 13 14 14 15 16 17 16 15 16 17 19 18 18 18 18 18 16 15 14 14 13 13 13 18 18 19 19 20 21 31 33 35 33 33 25 23 15
12 13 16 20 19 18 17 12 14 14 12 11 12 13 13 14 15 15 16 15 16 17 18 18 18 18 17 17 16 13 13 14 14 14 14 17 17 18 19 19 21 31 33 36 35 36 34 32 17
12 13 15 16 18 18 15 14 14 10 8 8 10 12 12 13 13 14 16 15 15 17 17 19 18 18 18 17 15 12 12 13 13 14 15 15 16 17 18 18 19 26 34 36 33 34 33 32 27
15 12 15 15 18 18 17 17 10 14 4 7 10 13 13 14 15 14 14 14 15 16 17 18 18 18 18 17 16 13 13 13 13 15 16 14 15 15 16 18 17 19 26 32 31 18 5 5 20
12 14 15 15 15 16 19 15 13 12 5 7 10 13 14 15 16 13 13 14 14 15 16 17 18 18 18 17 17 15 15 15 13 12 12 11 12 12 13 17 21 6 11 7 8 11 27 31 25
19 17 9 13 14 15 16 16 14 11 10 6 9 11 13 17 15 12 11 12 12 13 15 17 19 19 18 17 17 18 16 16 16 11 11 10 12 10 12 13 6 12 17 13 13 1 12 23 18
Wind_Direction
308 349 13 27 1 350 1 0 16 20 27 33 30 32 0 349 341 340 27 31 27 18 13 4 353 349 348 349 347 344 337 331 336 336 331 324 314 308 305 301 299 300 297 296 286 272 269 185 353
346 355 13 24 343 352 347 355 360 17 22 29 20 15 6 354 353 358 8 17 18 13 9 4 358 355 351 348 346 345 342 336 328 326 323 316 308 302 297 295 295 292 283 272 278 248 228 256 312
5 360 8 359 339 343 342 355 360 4 14 12 8 355 356 355 6 7 28 23 19 8 4 360 356 355 354 352 347 345 340 334 328 323 313 310 304 298 291 289 288 286 273 256 239 211 219 259 287
3 7 6 352 341 337 338 352 357 360 357 355 352 350 351 359 3 16 27 24 13 7 5 3 1 358 354 351 349 345 340 335 330 325 314 305 298 298 290 284 283 281 277 264 222 204 227 241 257
2 3 351 342 338 348 352 346 352 348 347 350 350 344 343 360 17 28 27 25 11 5 7 8 4 1 358 354 350 345 340 334 326 321 313 299 294 291 288 283 277 276 275 262 215 203 210 226 234
0 359 351 351 348 348 354 354 348 345 344 344 342 341 343 5 15 30 29 20 13 8 11 9 6 2 358 354 350 346 340 333 325 316 310 301 288 278 283 281 273 270 271 266 220 199 196 209 212
360 354 348 346 344 348 352 359 349 345 345 346 349 343 345 4 22 28 25 17 14 13 11 9 8 3 360 356 351 345 339 332 329 323 312 302 290 278 271 268 276 276 269 261 251 248 230 164 193
358 358 351 354 355 352 1 3 351 356 350 353 359 353 347 4 26 26 20 15 13 13 12 9 8 4 359 354 350 344 338 333 330 327 318 302 289 282 273 269 272 270 267 262 258 259 235 216 178
6 356 359 354 0 357 8 2 1 358 356 357 3 351 347 2 17 6 6 4 5 10 12 10 7 4 358 353 347 342 338 333 328 326 323 308 296 285 279 269 263 272 267 268 278 223 228 205 198
2 351 355 358 360 2 3 2 356 357 0 356 357 359 354 6 9 6 5 360 2 1 8 12 9 2 357 351 345 340 336 333 328 320 318 314 297 290 283 274 264 258 264 266 272 279 213 229 227
351 352 355 356 359 5 356 353 3 359 351 358 355 352 5 8 8 8 5 2 2 3 7 11 5 359 352 350 347 344 336 330 324 320 313 312 296 287 287 282 271 257 259 269 272 272 243 225 230
349 352 354 350 357 7 0 351 351 358 358 356 4 356 358 3 4 8 4 4 2 4 3 5 1 354 351 351 347 343 337 330 321 319 312 304 297 285 278 278 280 268 259 260 251 249 240 238 228
341 347 354 353 357 6 353 353 349 344 350 354 358 353 352 357 3 9 8 6 2 0 1 0 359 354 350 347 346 344 338 330 318 315 309 302 289 281 281 276 273 272 263 257 248 242 226 234 231
346 344 339 351 359 6 358 350 350 356 6 6 21 358 353 358 6 7 10 6 5 3 0 2 359 355 352 348 346 342 339 329 318 315 311 295 284 278 279 278 269 265 265 258 254 249 233 234 227
346 336 341 348 351 359 359 353 8 5 6 359 9 6 360 4 12 9 9 5 5 6 6 6 3 358 353 352 349 346 339 332 322 323 311 290 283 276 272 272 269 258 257 266 246 255 228 223 231
332 338 334 351 352 1 3 4 3 1 3 1 357 359 358 1 8 11 11 10 15 14 17 17 11 2 358 356 353 349 345 337 334 326 307 287 281 276 270 265 266 258 256 255 249 256 240 248 231
331 339 351 351 356 357 7 0 356 360 350 344 346 348 351 357 4 13 16 15 20 22 24 19 13 7 3 2 359 357 355 352 338 316 295 286 281 277 272 261 259 248 250 247 249 240 237 225 208
334 345 354 8 0 3 285 251 261 339 328 311 311 338 356 9 10 15 19 22 25 27 27 21 15 11 10 9 10 8 6 4 336 329 313 296 289 280 265 254 253 239 243 242 244 239 239 218 214
326 347 353 6 0 1 10 261 270 346 346 345 345 352 13 18 16 21 24 26 26 28 26 21 17 15 16 19 24 30 32 24 21 350 307 295 292 281 261 251 250 243 243 255 240 238 214 229 217
330 340 348 2 6 1 3 262 358 6 8 8 12 22 22 23 21 23 28 29 26 27 26 24 22 19 23 30 38 44 61 70 92 334 303 304 290 273 254 250 244 236 238 243 231 235 226 227 189
337 344 347 353 356 11 3 11 20 18 18 21 19 17 19 21 18 22 30 30 27 29 30 30 27 26 32 37 50 54 70 98 82 299 295 294 283 267 254 252 246 237 234 235 228 222 217 218 198
330 344 351 351 354 359 3 6 18 18 20 22 19 20 20 24 19 27 34 31 29 33 37 36 33 33 36 35 48 60 71 63 42 346 309 295 285 266 257 256 249 236 230 229 227 225 230 212 208
333 336 346 355 358 1 17 14 21 17 24 27 20 16 19 24 22 25 37 34 32 39 39 41 39 39 42 41 44 64 66 64 60 30 332 309 288 266 256 254 248 231 224 227 221 219 219 216 209
339 334 345 354 360 0 16 13 15 13 19 26 29 21 26 26 20 16 30 36 37 41 41 45 43 45 45 50 51 61 70 73 78 68 38 298 277 259 253 249 253 215 211 206 208 213 217 217 219
328 336 334 343 352 355 11 3 15 12 21 34 33 25 27 22 21 15 28 39 41 44 43 49 48 50 52 54 59 68 79 82 90 76 70 262 258 247 250 247 249 214 206 204 206 210 221 227 231
335 343 340 336 345 350 354 6 11 9 17 42 37 31 34 24 24 23 23 40 44 46 49 51 54 55 57 58 64 83 89 94 100 101 106 191 230 242 244 249 237 213 203 199 200 192 198 206 237
331 333 342 345 347 349 0 358 350 354 20 55 47 32 35 28 29 25 22 38 46 49 56 53 61 61 60 63 69 94 115 122 112 125 146 187 221 230 235 246 241 218 197 195 199 193 171 174 221
315 334 339 347 345 350 356 348 355 354 47 51 35 18 31 26 23 24 25 34 48 54 59 58 65 65 66 68 75 101 115 133 133 128 142 181 212 224 228 216 234 221 205 195 200 228 141 125 241
302 311 328 339 348 348 349 0 3 4 43 31 15 11 25 21 15 22 25 31 48 60 60 68 66 71 70 75 80 95 102 115 141 169 173 196 220 221 219 208 200 142 121 135 218 173 162 181 213
290 299 317 329 341 344 349 346 360 4 1 15 356 358 11 8 13 20 29 35 51 64 64 70 70 75 78 84 87 91 104 116 129 180 194 205 198 213 222 218 232 106 115 112 121 189 101 213 226